Flag for U.S.A. Weather past 2 weeks in Bridgeport, Connecticut, U.S.A.

51 °F


Feels Like: 45 °F
Forecast: 44 / 62 °F
Wind: 21 mph from North

Location: Sikorsky Memorial Airport

Current Time: Oct 10, 2015 at 6:58:47 AM

Latest Report: Oct 10, 2015 at 5:52 AM

Visibility: 10 mi

Pressure: 30.03 "Hg

Humidity: 66%

Dew point: 40 °F

Location of BridgeportLocation

Historic Weather in Bridgeport — Graph


Bridgeport temperature yesterday

Maximum temperature yesterday: 73 °F (at 12:52 PM)
Minimum temperature yesterday: 59 °F (at 4:52 AM)
Average temperature yesterday: 66 °F

Past Weeks' High & Low Weather Summary

High80 °F (Sep 29, 1:52 PM)97% (Sep 29, 9:52 AM)30.50 "Hg (Sep 29, 9:52 AM)
Low48 °F (Oct 3, 6:52 AM)47% (Oct 4, 2:52 PM)29.67 "Hg (Sep 30, 6:52 AM)
Average61 °F73%30.15 "Hg
* Reported Sep 25 5:52 AM — Oct 10 5:52 AM, Bridgeport, Weather by CustomWeather, © 2015

Note: Actual official high and low records may vary slightly from our data, if they occured in-between our weather recording intervals... More about our weather records


Bridgeport weather history for previous 24 hours

Time TempWeatherWind HumidityBarometerVisibility
5:52 AM
Sat, Oct 10
51 °FClear.21 mph66%30.03 "Hg10 mi
4:52 AM52 °FPassing clouds.7 mph69%30.01 "Hg10 mi
3:52 AM53 °FClear.15 mph72%29.97 "Hg10 mi
2:52 AM55 °FClear.16 mph67%29.95 "Hg10 mi
1:52 AM58 °FClear.13 mph72%29.90 "Hg10 mi
12:52 AM61 °FClear.6 mph87%29.87 "Hg10 mi
11:52 PM
Fri, Oct 9
63 °FClear.5 mph87%29.85 "Hg10 mi
10:52 PM65 °FPassing clouds.5 mph87%29.83 "Hg10 mi
9:52 PM66 °FPassing clouds.6 mph90%29.82 "Hg10 mi
8:52 PM67 °FMostly cloudy.6 mph90%29.80 "Hg10 mi
7:52 PM68 °FClear.7 mph90%29.77 "Hg7 mi
6:52 PM69 °FLight rain. More clouds than sun.7 mph87%29.77 "Hg10 mi
5:59 PM69 °FHeavy rain. Fog.6 mph87%29.75 "Hg1 mi
4:52 PM71 °FSunny.12 mph78%29.74 "Hg10 mi
3:52 PM71 °FScattered clouds.16 mph76%29.77 "Hg10 mi
2:52 PM72 °FPartly sunny.15 mph73%29.79 "Hg10 mi
1:52 PM71 °FBroken clouds.14 mph76%29.82 "Hg10 mi
12:52 PM73 °FPassing clouds.15 mph66%29.86 "Hg10 mi
11:52 AM68 °FOvercast.16 mph82%29.90 "Hg10 mi
10:52 AM66 °FLight rain. Mostly cloudy.14 mph84%29.93 "Hg4 mi
9:52 AM67 °FOvercast.14 mph81%29.96 "Hg10 mi
8:52 AM66 °FMostly cloudy.15 mph84%29.97 "Hg10 mi
7:52 AM65 °FMostly cloudy.13 mph87%29.98 "Hg10 mi
6:52 AM64 °FOvercast.13 mph90%30.01 "Hg10 mi
Weather by CustomWeather, © 2015

See weather overviewHow to use our weather pages